Location: Voyageurs National Park
(48.5020°N, 92.9292°W)
Time: 12:19:21
(UTC-05:00)

Daily predictions for brighter satellites

Satellite Brightness Start Highest point End
(mag) Time Altitude Azimuth Time Altitude Azimuth Time Altitude Azimuth
Cosmos 2366 rocket 4.0 18:31:58 10° S 18:38:04 62° E 18:44:08 10° NNE
Cosmos 2237 Rocket 3.4 18:35:17 10° N 18:39:44 23° NE 18:44:09 10° E
Gbstr 26 Del rocket 3.4 18:38:32 10° WNW 18:43:11 88° NNE 18:48:58 10° ESE
Ariane Rocket 3.6 18:38:57 10° S 18:44:01 64° WSW 18:49:07 10° NNW
Aureole 1 Rocket 3.6 18:39:07 10° SSW 18:45:07 81° WNW 18:49:37 10° NNE
Cosmos 2151 2.9 18:42:39 10° N 18:46:57 69° E 18:51:10 10° SSE
H-2A R/B 4.4 18:46:18 10° E 18:48:42 16° ENE 18:51:06 10° NNE
SL-8 Rocket 4.1 18:43:56 10° S 18:50:08 84° W 18:56:27 10° N
SL-16 R/B 3.9 18:47:56 10° N 18:51:12 15° NE 18:54:28 10° ENE
CZ-2C R/B 3.6 18:47:01 10° NNE 18:51:34 69° ESE 18:56:00 10° S
Cosmos 2058 2.9 18:49:38 10° N 18:53:51 80° E 18:58:00 10° SSE
Cosmos-2242 3.9 18:50:45 10° SSW 18:54:54 53° WNW 18:59:05 10° N
Cosmos 1400 Rocket 3.2 18:51:41 10° NNW 18:55:43 70° W 18:59:39 10° S
Cosmos 2360 Rocket 2.8 18:55:43 10° NNW 19:01:19 62° WSW 19:06:53 10° SSE
YAOGAN 1 2.6 18:57:07 10° SSE 19:01:27 85° WSW 19:05:49 10° NNW
Cosmos 1633 Rocket 4.3 18:58:18 10° NNE 19:01:39 21° ENE 19:04:59 10° ESE
Cosmos 1980 4.5 18:59:13 10° NNW 19:04:15 32° NE 19:09:16 10° ESE
ALOS 2.5 19:00:22 10° SE 19:04:49 46° ENE 19:09:18 10° N
Cosmos 1300 4.3 19:02:50 10° ESE 19:05:09 16° E 19:07:28 10° NE
GRACE-2 3.9 19:03:32 10° SSE 19:06:00 43° E 19:08:29 10° NNE
ATLAS 5 CENTAUR R/B 4.0 19:04:18 10° NW 19:07:43 17° N 19:11:22 10° NE
GRACE-1 3.7 19:08:17 10° SSE 19:10:48 55° E 19:13:21 10° N
Aureole 2 Rocket 3.1 19:07:33 10° N 19:11:16 43° ENE 19:15:08 10° SE
MOS 1 4.3 19:06:13 10° SSE 19:11:54 89° E 19:17:39 10° NNW
MTI 3.7 19:08:41 10° NNE 19:11:56 90° ESE 19:15:08 10° SSW
COSMOS 2428 2.7 19:06:17 10° NNW 19:12:00 79° ENE 19:17:42 10° SSE
Cosmos 1821 Rocket 4.3 19:08:28 10° SSE 19:14:10 41° E 19:20:00 10° NNE
Cosmos 2333 Rocket 2.5 19:09:19 10° NNW 19:14:54 49° NE 19:20:29 10° SE
Cosmos 1452 Rocket 4.2 19:09:51 10° NNW 19:15:02 60° WSW 19:20:12 10° S
Abrixas 4.3 19:14:51 10° SSE 19:15:20 11° SSE 19:15:20 11° SSE
SPOT 3 Rocket 3.5 19:10:17 10° SSE 19:15:29 81° ENE 19:20:45 10° NNW
Cosmos 1833 4.3 19:13:59 10° SSW 19:19:40 83° WNW 19:25:20 10° NNE
Cosmos 2219 3.6 19:15:33 10° S 19:20:51 40° ESE 19:26:11 10° NE
CZ-4 R/B 3.2 19:18:09 10° SSW 19:22:02 37° W 19:25:54 10° NNW
FENGYUN 3A 3.6 19:17:16 10° SSE 19:22:37 67° ENE 19:28:01 10° N
GP-B 3.7 19:19:29 10° N 19:23:53 61° W 19:28:15 10° SSW
SKYMED 2 3.5 19:19:38 10° NNE 19:24:00 75° ESE 19:28:20 10° S
USA 234 3.9 19:20:48 14° ENE 19:26:03 43° N 19:32:09 10° WNW
Cosmos 2221 2.5 19:22:37 10° S 19:26:55 65° E 19:31:15 10° NNE
Iridium 4 Rocket 3.8 19:22:02 10° SSE 19:27:37 61° E 19:33:27 10° N
Cosmos 921 Rocket 4.1 19:24:39 10° NNW 19:28:57 48° WSW 19:33:09 10° S
Cosmos 2084 3.1 19:25:20 10° NW 19:29:06 63° NE 19:31:39 20° ESE
Cosmos 2297 Rocket 4.0 19:26:18 10° SE 19:27:02 12° SE 19:27:02 12° SE
Cosmos 2098 Rocket 3.7 19:25:49 10° SSE 19:30:32 55° E 19:36:33 10° NNE
Cosmos 1110 Rocket 4.2 19:26:35 10° NNW 19:31:46 49° ENE 19:36:35 12° SE
EO 1 Del DPAF 3.5 19:28:20 10° N 19:32:12 72° WNW 19:36:01 10° SSW
Cosmos 44 3.1 19:29:49 10° SSW 19:34:03 54° ESE 19:37:04 18° NE
Abrixas rocket 2.1 19:31:02 10° W 19:34:21 89° S 19:35:42 33° E
Meteor 2-10 4.4 19:33:11 10° SSE 19:37:48 37° E 19:42:33 10° NNE
BREEZE-M DEB (TANK) 4.3 19:34:04 10° W 19:38:16 59° SSW 19:54:31 10° SE
BREEZE-M DEB (TANK) 3.6 19:26:34 10° W 19:38:30 72° S 19:41:01 25° ESE
Cosmos 2123 Rocket 4.1 19:34:09 10° N 19:40:16 54° ENE 19:46:24 10° SSE
Cosmos 1726 2.1 19:38:57 10° S 19:42:34 58° E 19:46:13 10° NNE
Cosmos 1315 Rocket 4.3 19:39:06 10° NNW 19:42:58 41° W 19:46:50 10° SSW
SL-8 R/B 3.7 19:39:56 10° WSW 19:44:45 76° SSE 19:47:07 30° E
FengYun 1-2 T 4.2 19:40:09 10° SSE 19:45:33 64° ENE 19:51:00 10° N
Cosmos 1605 Rocket 4.3 19:43:02 10° SSE 19:48:36 39° E 19:54:11 10° NNE
Cosmos 2219 Rocket 2.2 19:43:03 10° NNW 19:48:41 88° WSW 19:54:18 10° SSE
BREEZE-M DEB (TANK) 1.9 19:48:35 10° WSW 19:50:17 52° SSW 19:50:17 52° SSW
SAR-Lupe-3 4.4 19:50:14 10° NNE 19:53:49 64° ESE 19:57:22 10° S
Cosmos 1470 Rocket 4.2 19:50:29 10° N 19:54:36 35° ENE 19:54:36 35° ENE
Cosmos 1048 Rocket 3.9 19:49:44 10° SSW 19:54:51 89° ESE 20:00:01 10° NNE
Cosmos 158 Rocket 4.1 19:50:28 10° SSW 19:55:33 77° WNW 20:00:51 10° NNE
FREGAT/IRIS 2.4 19:56:22 47° SSE 19:57:07 87° E 20:00:08 10° NNW
APEX 2.7 19:54:54 10° SW 19:57:51 65° WNW 19:58:27 47° N
Envisat 3.5 20:01:48 35° ENE 20:02:14 36° ENE 20:06:52 10° N
NOSS 0 Rocket 3.9 20:00:06 10° NNW 20:06:19 85° WSW 20:11:40 14° SSE
Cosmos 44 Rocket 3.2 20:02:03 10° SW 20:06:45 83° NW 20:09:31 25° NE
SJ-6B 2.5 20:06:29 46° SSE 20:07:30 78° ENE 20:11:16 10° N
Lacrosse 5 rocket 2.8 20:04:56 10° NW 20:08:38 26° N 20:09:34 24° NNE
Resurs 01 Rocket 2.1 20:11:19 40° NE 20:11:19 40° NE 20:14:55 10° N
Sich 1 3.2 20:06:39 10° NNW 20:11:02 73° W 20:15:24 10° S
CZ-4C R/B 2.1 20:06:01 10° SSW 20:11:19 79° SE 20:15:05 24° NE
COSMO-SKYMED 1 4.1 20:07:56 10° N 20:11:58 37° WNW 20:15:58 10° SW
Thor Agena Rocket 3.4 20:07:41 10° NNE 20:12:50 81° ESE 20:17:53 10° SSW
MOS 1-B Rocket 3.9 20:09:36 25° SE 20:13:00 63° ENE 20:19:17 10° N
Resurs 1-3 4.2 20:17:14 39° NE 20:17:14 39° NE 20:20:32 10° N
BREEZE M DEB (TANK) 4.4 20:01:56 10° WNW 20:20:56 76° SSW 20:23:10 40° SE
HJ-1C 3.7 20:22:14 66° WNW 20:22:14 66° WNW 20:25:24 10° NNW
H-2A R/B 3.4 20:19:07 13° S 20:22:32 56° W 20:26:26 10° NNW
In-Cosmos 22 Rocket 4.3 20:16:54 10° NNW 20:22:40 82° W 20:28:29 10° S
Cosmos 2237 Rocket 2.2 20:18:48 10° NNW 20:24:32 85° WSW 20:27:17 32° SSE
Cosmos 1331 Rocket 4.1 20:21:00 10° NNW 20:26:14 72° WSW 20:29:11 26° S
BREEZE-M DEB (TANK) 4.0 20:26:30 10° WSW 20:26:59 16° WSW 20:26:59 16° WSW
USA 267 4.2 20:32:24 29° SSE 20:32:24 29° SSE 20:36:34 10° S
Cosmos 2227 Rocket 2.5 20:29:41 10° S 20:34:03 48° SSE 20:34:03 48° SSE
SL-16 R/B 2.2 20:31:00 10° NNW 20:36:38 57° ENE 20:36:40 57° ENE
Cosmos 1633 Rocket 4.0 20:35:27 10° NNW 20:39:42 46° W 20:43:25 13° SSW
Cosmos 1300 3.7 20:36:48 10° SSW 20:40:29 45° WNW 20:44:11 10° N
Cosmos 1933 Rocket 4.2 20:37:45 10° N 20:40:53 46° N 20:40:53 46° N
CZ-2D R/B 4.5 20:48:41 39° NW 20:48:41 39° NW 20:51:21 10° NNW
Cosmos 1980 4.3 20:43:08 10° NW 20:48:37 53° WSW 20:51:11 30° S
Meteor 2-3 Rocket 3.6 20:43:20 10° NNW 20:49:08 88° W 20:50:09 63° S
CZ-3A R/B 3.9 20:31:31 10° WNW 20:54:18 85° NNE 20:56:32 52° ESE
ATLAS 5 CENTAUR R/B 3.7 20:49:46 10° NNW 20:54:05 25° NNE 20:54:05 25° NNE
Cosmos 1302 Rocket 4.1 20:49:35 10° NNW 20:54:48 71° WSW 20:55:06 69° SW
Cosmos 2333 Rocket 3.8 20:53:57 10° NW 20:58:59 32° WSW 21:03:41 12° SSW
Cosmos 2219 4.4 20:59:38 10° WSW 21:05:02 40° NW 21:10:27 10° NNE
Spot 2 Rocket 3.8 21:06:39 62° NW 21:06:39 62° NW 21:11:04 10° NNW
USA 234 3.3 21:08:10 63° NE 21:08:31 64° NNE 21:14:59 10° NW
Cosmos 2297 Rocket 3.8 21:06:55 10° SSW 21:08:58 23° SSW 21:08:58 23° SSW
H-2A R/B 4.4 21:25:40 15° N 21:25:40 15° N 21:26:40 10° N
Resurs 01 Rocket 4.1 21:48:55 19° WNW 21:48:55 19° WNW 21:50:56 10° NW
Lacrosse 5 rocket 4.3 21:44:34 10° NW 21:45:15 14° NW 21:45:15 14° NW
CZ-4C R/B 3.8 21:55:29 10° W 22:00:19 32° NNW 22:00:19 32° NNW
SL-16 R/B 4.3 22:15:43 10° NW 22:18:34 22° WNW 22:18:34 22° WNW
